Location: Baia Mare
(47.6567°N, 23.5850°E)
Time: 14:38:48
(UTC+03:00)

ISS - Pass Details

Date: 16 July 2019
Orbit: 409 x 418 km, 51.6° (Epoch: 21 July)

Event Time Altitude Azimuth Distance (km) Brightness Sun altitude
Rises 22:29:55 0° 207° (SSW) 2,341 -0.2 -9.9°
Reaches altitude 10° 22:32:19 10° 190° (S) 1,481 -1.3 -10.1°
Maximum altitude 22:34:54 21° 139° (SE) 989 -2.5 -10.4°
Drops below altitude 10° 22:37:29 10° 88° (E) 1,485 -1.3 -10.7°
Sets 22:39:53 0° 72° (ENE) 2,349 -0.2 -11.0°
